SL-8 R/B

Satellite information

Favourite Embed

Satellite Type and Status

ROCKET BODYIN ORBIT

Key statistics

Satellite SL-8 R/B at a glance.

Uptime

8551

Days in orbit

Revolutions

≈ 13.8

Per day

Orbit

LEO

Low Earth Orbit

Inclination

82.9

Latest

Satellite identification and parameters

Extended collection of information and parameters for SL-8 R/B.

Object identification

Identified? True

Debris? False

Object name: SL-8 R/B

International designator: 2002-026B

Object number (NORAD): 27437

Object ID (CCSDS): 27437

Country: COMMONWEALTH OF INDEPENDENT STATES (CIS)

Current information (Y/N): Y

RCS size: LARGE

Orbital parameters

Period: 104.582 minutes

Inclination: 82.9493 deg

SMA: 7352.996 km

Apoapsis: 1007.921 km

Periapsis: 941.802 km

RAAN: 324.981 deg

Eccentricy: 0.00449608

Argument of periapsis: 124.1153 deg

Mean anomaly: 236.4282 deg

Mean motion: 13.76912203 rev/day

Mean motion (dot): 0.00000146 rev/day2

B* drag term: 0.00013142386 1/REarth

Two-line elements (TLE)

Creation date: Oct. 25, 2025, 3:11 a.m.

Reference frame: TEME

Reference center: EARTH

Epoch: Oct. 24, 2025, 12:30 p.m. UTC

TLE line 0: 0 SL-8 R/B

TLE line 1: 1 27437U 02026B 25297.52117623 .00000146 00000-0 13142-3 0 9990

TLE line 2: 2 27437 82.9493 324.9810 0044961 124.1153 236.4282 13.76912203176148

Live tracking on map

Real-time ground track for satellite SL-8 R/B.

In-orbit conjunctions

A list of the most updated potential collisions computed for object SL-8 R/B.

Target Orbit TCA Probability of collision Miss distance Type
FENGYUN 1C DEB SSO 2024-09-22 07:43:36 0.001043758 80.0 (m) DEBRIS
DELTA 1 DEB SSO 2024-06-30 06:37:47 0.0004663971 62.0 (m) DEBRIS

Associated space launch

Navigation satellite providing location information for the Tsiklon-B navigation system

SL-8 R/B was lifted into orbit during the mission ‘Kosmos-3M | Parus 93’, on board a Kosmos-3M space rocket.

The launch took place on May 28, 2002, 6:14 p.m. from 132/1 (132L).

For more information about the launch, click the button.

Launch to space Kosmos-3M | Parus 93
Kosmos-3M | Parus 93

Agency: N/A

Status: Launch Successful

Launch date: May 28, 2002, 6:14 p.m. UTC

Rocket: Kosmos-3M

Launch pad: 132/1 (132L)

Location: Plesetsk Cosmodrome, Russian Federation

...

Latest news about this satellite

There are no fresh news available about this satellite. Check back as we update our databases every day.


Newsletter sign-up

Weekly statistics, charts and insights to help you stay on top of the space industry.